Location: Allos
(44.2333°N, 6.6333°E)
Time: 05:51:42
(UTC+00:00)

CZ-2C R/B - Pass Details

Date: 01 December 2020
Orbit: 705 x 907 km, 98.1° (Epoch: 27 January)

Event Time Altitude Azimuth Distance (km) Brightness Sun altitude
Rises 17:13:54 0° 138° (SE) 3,221 6.0 -13.6°
Reaches altitude 10° 17:16:27 10° 128° (SE) 2,269 5.1 -14.0°
Maximum altitude 17:20:46 31° 67° (ENE) 1,276 3.6 -14.8°
Drops below altitude 10° 17:24:58 10° 7° (N) 2,207 5.2 -15.5°
Sets 17:27:25 0° 357° (N) 3,119 6.0 -15.9°
